Flag for Germany Weather past 2 weeks in Freiberg, Saxony, Germany

Now
63 °F

Broken clouds.


Feels Like: 63 °F
Forecast: 57 / 73 °F
Wind: 8 mph from North

Location: Dresden-Klotzsche

Current Time: Jul 24, 2014 at 1:43:29 PM

Latest Report: Jul 24, 2014 at 1:20 PM


Visibility: N/A

Pressure: 30.01 "Hg

Humidity: 88%

Dew point: 59 °F

Location of FreibergLocation

Historic Weather in Freiberg — Graph

°F

Freiberg temperature yesterday

Maximum temperature yesterday: 82 °F (at 4:50 PM)
Minimum temperature yesterday: 61 °F (at 5:20 AM)
Average temperature yesterday: 70 °F

Past Weeks' High & Low Weather Summary

 TemperatureHumidityPressure
High90 °F (Jul 20, 2:20 PM)100% (Jul 10, 8:50 AM)30.18 "Hg (Jul 10, 8:50 AM)
Low52 °F (Jul 12, 4:50 AM)24% (Jul 20, 3:50 PM)29.65 "Hg (Jul 9, 2:50 PM)
Average69 °F67%29.94 "Hg
* Reported Jul 9 2:50 PM — Jul 24 12:50 PM, Freiberg, Weather by CustomWeather, © 2014

Note: Actual official high and low records may vary slightly from our data, if they occured in-between our weather recording intervals... More about our weather records

Advertising

Freiberg weather history for previous 24 hours

 ConditionsComfort  
Time TempWeatherWind HumidityBarometerVisibility
12:50 PM
Jul 24
61 °FBroken clouds.6 mph88%30.01 "HgN/A
12:20 PM61 °FLight rain. Broken clouds.7 mph94%30.01 "HgN/A
11:50 AM61 °FLight rain. More clouds than sun.7 mph88%30.01 "HgN/A
11:20 AM63 °FPartly sunny.7 mph83%30.01 "HgN/A
10:50 AM63 °FLight rain. Partly sunny.6 mph77%30.01 "HgN/A
10:20 AM63 °FSunny.5 mph77%29.98 "Hg10 mi
9:50 AM63 °FSunny.6 mph77%29.98 "Hg10 mi
9:20 AM61 °FSunny.3 mph83%29.98 "Hg10 mi
8:50 AM61 °FSunny.5 mph83%30.01 "Hg10 mi
8:20 AM59 °FSunny.5 mph82%30.01 "Hg10 mi
7:50 AM59 °FSunny.6 mph82%30.01 "Hg10 mi
7:20 AM61 °FSunny.5 mph77%30.01 "Hg10 mi
6:50 AM59 °FSunny.7 mph82%30.01 "Hg10 mi
6:20 AM57 °FSunny.7 mph88%30.01 "Hg10 mi
5:50 AM57 °FFog.5 mph88%30.01 "HgN/A
5:20 AM57 °FClear.3 mph94%29.98 "Hg10 mi
4:50 AM59 °FClear.5 mph88%29.98 "Hg10 mi
4:20 AM59 °FClear.5 mph88%29.98 "Hg10 mi
3:50 AM59 °FClear.3 mph88%29.98 "Hg10 mi
3:20 AM61 °FClear.5 mph77%29.98 "Hg10 mi
2:50 AM61 °FClear.3 mph77%30.01 "Hg10 mi
2:20 AM61 °FClear.3 mph77%30.01 "Hg10 mi
1:50 AM61 °FClear.5 mph77%30.01 "Hg10 mi
1:20 AM63 °FClear.6 mph73%30.01 "Hg10 mi
12:50 AM63 °FClear.7 mph73%30.01 "Hg10 mi
12:20 AM63 °FClear.7 mph73%30.01 "Hg10 mi
11:50 PM
Jul 23
63 °FClear.5 mph73%30.01 "Hg10 mi
11:20 PM63 °FClear.5 mph73%30.01 "Hg10 mi
10:50 PM64 °FClear.6 mph68%30.04 "Hg10 mi
10:20 PM64 °FClear.5 mph68%30.04 "Hg10 mi
9:50 PM64 °FSunny.5 mph68%30.01 "Hg10 mi
9:20 PM66 °FPassing clouds.5 mph60%30.01 "HgN/A
8:50 PM66 °FSunny.9 mph64%30.01 "Hg10 mi
8:20 PM68 °FScattered showers. Scattered clouds.17 mph60%30.01 "HgN/A
7:50 PM68 °FScattered showers. Scattered clouds.25 mph56%30.01 "HgN/A
7:20 PM77 °FScattered showers. Scattered clouds.15 mph34%29.98 "HgN/A
6:50 PM79 °FScattered clouds.10 mph28%29.98 "HgN/A
6:20 PM81 °FSunny.10 mph24%29.98 "Hg10 mi
5:50 PM81 °FSunny.13 mph24%29.98 "Hg10 mi
5:20 PM81 °FSunny.12 mph28%29.98 "Hg10 mi
4:50 PM82 °FPleasantly warm.10 mph28%29.98 "HgN/A
4:20 PM81 °FSunny.16 mph28%29.98 "Hg10 mi
3:50 PM81 °FSunny.13 mph30%29.98 "Hg10 mi
3:20 PM81 °FScattered clouds.13 mph32%30.01 "HgN/A
2:50 PM79 °FScattered clouds.13 mph37%30.01 "HgN/A
2:20 PM81 °FSunny.15 mph37%30.01 "Hg10 mi
1:50 PM81 °FSunny.10 mph34%30.04 "Hg10 mi
1:20 PM79 °FSunny.7 mph37%30.04 "Hg10 mi
Weather by CustomWeather, © 2014

See weather overviewHow to use our weather pages